User: anonymous   Login
Location: Nairn
(57.5833°N, 3.8667°W)
Time: 00:52:49
(UTC+00:00)
Language:

SL-14 R/B - Orbit

View from above orbital plane
View from above orbital plane
View from above satellite
View from above satellite

Ground track
Ground track

The orbit data is extracted from the following two-line orbital elements,

1 33505U 09003B   20292.93255924 -.00000250 +00000-0 -17176-4 0  9997
2 33505 082.3832 109.2048 0025994 316.8872 043.0320 15.09920815644840
Epoch (UTC): 18 October 2020 22:22:53
Eccentricity: 0.0025994
inclination: 82.3832°
perigee height: 518 km
apogee height: 554 km
right ascension of ascending node: 109.2048°
argument of perigee: 316.8872°
revolutions per day: 15.09920815
mean anomaly at epoch: 43.0320°
orbit number at epoch: 64484

The dashed part of the orbit path shows where the satellite is in the earth's shadow,  

DLR